owner,sensor,date,latitude,longitude,air_pressure(mBar),qcFlag 
TABS,ioos:station:wmo:42045:1,2008-05-01T00:00:00Z,26.2168,-96.4998,1009.72,11111222 
TABS,ioos:station:wmo:42045:1,2008-05-01T00:30:00Z,26.2168,-96.4998,1009.7,11111222 
TABS,ioos:station:wmo:42045:1,2008-05-01T01:00:00Z,26.2168,-96.4998,1009.65,11111222 
TABS,ioos:station:wmo:42045:1,2008-05-01T01:30:00Z,26.2168,-96.4998,1009.48,11111222 
TABS,ioos:station:wmo:42045:1,2008-05-01T02:00:00Z,26.2168,-96.4998,1009.79,11111222 
TABS,ioos:station:wmo:42045:1,2008-05-01T02:30:00Z,26.2168,-96.4998,1009.99,11111222 
TABS,ioos:station:wmo:42045:1,2008-05-01T03:00:00Z,26.2168,-96.4998,1010.27,11111222 
TABS,ioos:station:wmo:42045:1,2008-05-01T03:30:00Z,26.2168,-96.4998,1010.25,11111222 
TABS,ioos:station:wmo:42045:1,2008-05-01T04:00:00Z,26.2168,-96.4998,1010.5,11111222 
TABS,ioos:station:wmo:42045:1,2008-05-01T04:30:00Z,26.2168,-96.4998,1010.49,11111222 
TABS,ioos:station:wmo:42045:1,2008-05-01T05:00:00Z,26.2168,-96.4998,1010.15,11111222 
TABS,ioos:station:wmo:42045:1,2008-05-01T05:30:00Z,26.2168,-96.4998,1010.11,11111222 
TABS,ioos:station:wmo:42045:1,2008-05-01T06:00:00Z,26.2168,-96.4998,1009.7,11111222 
TABS,ioos:station:wmo:42045:1,2008-05-01T06:30:00Z,26.2168,-96.4998,1009.2,11111222 
TABS,ioos:station:wmo:42045:1,2008-05-01T07:00:00Z,26.2168,-96.4998,1008.59,11111222 
TABS,ioos:station:wmo:42045:1,2008-05-01T07:30:00Z,26.2168,-96.4998,1008.08,11111222 
TABS,ioos:station:wmo:42045:1,2008-05-01T08:00:00Z,26.2168,-96.4998,1007.54,11111222 
TABS,ioos:station:wmo:42045:1,2008-05-01T08:30:00Z,26.2168,-96.4998,1007.02,11111222 
TABS,ioos:station:wmo:42045:1,2008-05-01T09:00:00Z,26.2168,-96.4998,1007.38,11111222 
TABS,ioos:station:wmo:42045:1,2008-05-01T09:30:00Z,26.2168,-96.4998,1007.16,11111222 
TABS,ioos:station:wmo:42045:1,2008-05-01T10:00:00Z,26.2168,-96.4998,1007.04,11111222 
TABS,ioos:station:wmo:42045:1,2008-05-01T10:30:00Z,26.2168,-96.4998,1006.99,11111222 
TABS,ioos:station:wmo:42045:1,2008-05-01T11:00:00Z,26.2168,-96.4998,1007.16,11111222 
TABS,ioos:station:wmo:42045:1,2008-05-01T11:30:00Z,26.2168,-96.4998,1007.34,11111222 
TABS,ioos:station:wmo:42045:1,2008-05-01T12:00:00Z,26.2168,-96.4998,1007.5,11111222 
TABS,ioos:station:wmo:42045:1,2008-05-01T12:30:00Z,26.2168,-96.4998,1007.56,11111222 
TABS,ioos:station:wmo:42045:1,2008-05-01T13:00:00Z,26.2168,-96.4998,1007.94,11111222 
TABS,ioos:station:wmo:42045:1,2008-05-01T13:30:00Z,26.2168,-96.4998,1008.03,11111222 
TABS,ioos:station:wmo:42045:1,2008-05-01T14:00:00Z,26.2168,-96.4998,1007.83,11111222 
TABS,ioos:station:wmo:42045:1,2008-05-01T14:30:00Z,26.2168,-96.4998,1007.49,11111222 
TABS,ioos:station:wmo:42045:1,2008-05-01T15:00:00Z,26.2168,-96.4998,1007.68,11111222 
TABS,ioos:station:wmo:42045:1,2008-05-01T15:30:00Z,26.2168,-96.4998,1007.65,11111222 
TABS,ioos:station:wmo:42045:1,2008-05-01T16:00:00Z,26.2168,-96.4998,1007.56,11111222 
TABS,ioos:station:wmo:42045:1,2008-05-01T16:30:00Z,26.2168,-96.4998,1007.5,11111222 
TABS,ioos:station:wmo:42045:1,2008-05-01T17:00:00Z,26.2168,-96.4998,1007.34,11111222 
TABS,ioos:station:wmo:42045:1,2008-05-01T17:30:00Z,26.2168,-96.4998,1006.86,11111222 
TABS,ioos:station:wmo:42045:1,2008-05-01T18:00:00Z,26.2168,-96.4998,1006.62,11111222 
TABS,ioos:station:wmo:42045:1,2008-05-01T18:30:00Z,26.2168,-96.4998,1006.15,11111222 
TABS,ioos:station:wmo:42045:1,2008-05-01T19:00:00Z,26.2168,-96.4998,1005.9,11111222 
TABS,ioos:station:wmo:42045:1,2008-05-01T19:30:00Z,26.2168,-96.4998,1005.54,11111222 
TABS,ioos:station:wmo:42045:1,2008-05-01T20:00:00Z,26.2168,-96.4998,1005.0,11111222 
TABS,ioos:station:wmo:42045:1,2008-05-01T20:30:00Z,26.2168,-96.4998,1004.92,11111222 
TABS,ioos:station:wmo:42045:1,2008-05-01T21:00:00Z,26.2168,-96.4998,1004.32,11111222 
TABS,ioos:station:wmo:42045:1,2008-05-01T21:30:00Z,26.2168,-96.4998,1004.15,11111222 
TABS,ioos:station:wmo:42045:1,2008-05-01T22:00:00Z,26.2168,-96.4998,1004.1,11111222 
TABS,ioos:station:wmo:42045:1,2008-05-01T22:30:00Z,26.2168,-96.4998,1003.93,11111222 
TABS,ioos:station:wmo:42045:1,2008-05-01T23:00:00Z,26.2168,-96.4998,1003.8,11111222 
TABS,ioos:station:wmo:42045:1,2008-05-01T23:30:00Z,26.2168,-96.4998,1003.67,11111222 
TABS,ioos:station:wmo:42045:1,2008-05-02T00:00:00Z,26.2168,-96.4998,1003.57,11111222 
TABS,ioos:station:wmo:42045:1,2008-05-02T00:30:00Z,26.2168,-96.4998,1003.4,11111222 
TABS,ioos:station:wmo:42045:1,2008-05-02T01:00:00Z,26.2168,-96.4998,1003.64,11111222 
TABS,ioos:station:wmo:42045:1,2008-05-02T01:30:00Z,26.2168,-96.4998,1003.95,11111222 
TABS,ioos:station:wmo:42045:1,2008-05-02T02:00:00Z,26.2168,-96.4998,1004.22,11111222 
TABS,ioos:station:wmo:42045:1,2008-05-02T02:30:00Z,26.2168,-96.4998,1004.64,11111222 
TABS,ioos:station:wmo:42045:1,2008-05-02T03:00:00Z,26.2168,-96.4998,1005.19,11111222 
TABS,ioos:station:wmo:42045:1,2008-05-02T03:30:00Z,26.2168,-96.4998,1005.57,11111222 
TABS,ioos:station:wmo:42045:1,2008-05-02T04:00:00Z,26.2168,-96.4998,1005.76,11111222 
TABS,ioos:station:wmo:42045:1,2008-05-02T04:30:00Z,26.2168,-96.4998,1006.1,11111222 
TABS,ioos:station:wmo:42045:1,2008-05-02T05:00:00Z,26.2168,-96.4998,1006.67,11111222 
TABS,ioos:station:wmo:42045:1,2008-05-02T05:30:00Z,26.2168,-96.4998,1006.33,11111222 
TABS,ioos:station:wmo:42045:1,2008-05-02T06:00:00Z,26.2168,-96.4998,1005.8,11111222 
TABS,ioos:station:wmo:42045:1,2008-05-02T06:30:00Z,26.2168,-96.4998,1005.59,11111222 
TABS,ioos:station:wmo:42045:1,2008-05-02T07:00:00Z,26.2168,-96.4998,1005.35,11111222 
TABS,ioos:station:wmo:42045:1,2008-05-02T07:30:00Z,26.2168,-96.4998,1005.06,11111222 
TABS,ioos:station:wmo:42045:1,2008-05-02T08:00:00Z,26.2168,-96.4998,1004.77,11111222 
TABS,ioos:station:wmo:42045:1,2008-05-02T08:30:00Z,26.2168,-96.4998,1004.52,11111222 
TABS,ioos:station:wmo:42045:1,2008-05-02T09:00:00Z,26.2168,-96.4998,1004.74,11111222 
TABS,ioos:station:wmo:42045:1,2008-05-02T09:30:00Z,26.2168,-96.4998,1004.53,11111222 
TABS,ioos:station:wmo:42045:1,2008-05-02T10:00:00Z,26.2168,-96.4998,1004.62,11111222 
TABS,ioos:station:wmo:42045:1,2008-05-02T10:30:00Z,26.2168,-96.4998,1005.0,11111222 
TABS,ioos:station:wmo:42045:1,2008-05-02T11:00:00Z,26.2168,-96.4998,1004.85,11111222 
TABS,ioos:station:wmo:42045:1,2008-05-02T11:30:00Z,26.2168,-96.4998,1004.8,11111222 
TABS,ioos:station:wmo:42045:1,2008-05-02T12:00:00Z,26.2168,-96.4998,1004.93,11111222 
TABS,ioos:station:wmo:42045:1,2008-05-02T12:30:00Z,26.2168,-96.4998,1005.57,11111222 
TABS,ioos:station:wmo:42045:1,2008-05-02T13:00:00Z,26.2168,-96.4998,1005.85,11111222 
TABS,ioos:station:wmo:42045:1,2008-05-02T13:30:00Z,26.2168,-96.4998,1005.83,11111222 
TABS,ioos:station:wmo:42045:1,2008-05-02T14:00:00Z,26.2168,-96.4998,1005.9,11111222 
TABS,ioos:station:wmo:42045:1,2008-05-02T14:30:00Z,26.2168,-96.4998,1006.17,11111222 
TABS,ioos:station:wmo:42045:1,2008-05-02T15:00:00Z,26.2168,-96.4998,1006.35,11111222 
TABS,ioos:station:wmo:42045:1,2008-05-02T15:30:00Z,26.2168,-96.4998,1006.57,11111222 
TABS,ioos:station:wmo:42045:1,2008-05-02T16:00:00Z,26.2168,-96.4998,1006.7,11111222 
TABS,ioos:station:wmo:42045:1,2008-05-02T16:30:00Z,26.2168,-96.4998,1006.66,11111222 
TABS,ioos:station:wmo:42045:1,2008-05-02T17:00:00Z,26.2168,-96.4998,1006.47,11111222 
TABS,ioos:station:wmo:42045:1,2008-05-02T17:30:00Z,26.2168,-96.4998,1006.11,11111222 
TABS,ioos:station:wmo:42045:1,2008-05-02T18:00:00Z,26.2168,-96.4998,1005.88,11111222 
TABS,ioos:station:wmo:42045:1,2008-05-02T18:30:00Z,26.2168,-96.4998,1005.65,11111222 
TABS,ioos:station:wmo:42045:1,2008-05-02T19:00:00Z,26.2168,-96.4998,1005.65,11111222 
TABS,ioos:station:wmo:42045:1,2008-05-02T19:30:00Z,26.2168,-96.4998,1005.47,11111222 
TABS,ioos:station:wmo:42045:1,2008-05-02T20:00:00Z,26.2168,-96.4998,1005.71,11111222 
TABS,ioos:station:wmo:42045:1,2008-05-02T20:30:00Z,26.2168,-96.4998,1005.44,11111222 
TABS,ioos:station:wmo:42045:1,2008-05-02T21:00:00Z,26.2168,-96.4998,1004.98,11111222 
TABS,ioos:station:wmo:42045:1,2008-05-02T21:30:00Z,26.2168,-96.4998,1004.8,11111222 
TABS,ioos:station:wmo:42045:1,2008-05-02T22:00:00Z,26.2168,-96.4998,1004.77,11111222 
TABS,ioos:station:wmo:42045:1,2008-05-02T22:30:00Z,26.2168,-96.4998,1005.11,11111222 
TABS,ioos:station:wmo:42045:1,2008-05-02T23:00:00Z,26.2168,-96.4998,1005.17,11111222 
TABS,ioos:station:wmo:42045:1,2008-05-02T23:30:00Z,26.2168,-96.4998,1005.38,11111222 
TABS,ioos:station:wmo:42045:1,2008-05-03T00:00:00Z,26.2168,-96.4998,1005.59,11111222 
TABS,ioos:station:wmo:42045:1,2008-05-03T00:30:00Z,26.2168,-96.4998,1005.71,11111222 
TABS,ioos:station:wmo:42045:1,2008-05-03T01:00:00Z,26.2168,-96.4998,1006.04,11111222 
TABS,ioos:station:wmo:42045:1,2008-05-03T01:30:00Z,26.2168,-96.4998,1006.37,11111222 
TABS,ioos:station:wmo:42045:1,2008-05-03T02:00:00Z,26.2168,-96.4998,1006.91,11111222 
TABS,ioos:station:wmo:42045:1,2008-05-03T02:30:00Z,26.2168,-96.4998,1007.23,11111222 
TABS,ioos:station:wmo:42045:1,2008-05-03T03:00:00Z,26.2168,-96.4998,1007.69,11111222 
TABS,ioos:station:wmo:42045:1,2008-05-03T03:30:00Z,26.2168,-96.4998,1008.08,11111222 
TABS,ioos:station:wmo:42045:1,2008-05-03T04:00:00Z,26.2168,-96.4998,1008.41,11111222 
TABS,ioos:station:wmo:42045:1,2008-05-03T04:30:00Z,26.2168,-96.4998,1008.72,11111222 
TABS,ioos:station:wmo:42045:1,2008-05-03T05:00:00Z,26.2168,-96.4998,1008.86,11111222 
TABS,ioos:station:wmo:42045:1,2008-05-03T05:30:00Z,26.2168,-96.4998,1008.84,11111222 
TABS,ioos:station:wmo:42045:1,2008-05-03T06:00:00Z,26.2168,-96.4998,1008.75,11111222 
TABS,ioos:station:wmo:42045:1,2008-05-03T06:30:00Z,26.2168,-96.4998,1008.91,11111222 
TABS,ioos:station:wmo:42045:1,2008-05-03T07:00:00Z,26.2168,-96.4998,1008.52,11111222 
TABS,ioos:station:wmo:42045:1,2008-05-03T07:30:00Z,26.2168,-96.4998,1008.44,11111222 
TABS,ioos:station:wmo:42045:1,2008-05-03T08:00:00Z,26.2168,-96.4998,1008.21,11111222 
TABS,ioos:station:wmo:42045:1,2008-05-03T08:30:00Z,26.2168,-96.4998,1008.28,11111222 
TABS,ioos:station:wmo:42045:1,2008-05-03T09:00:00Z,26.2168,-96.4998,1008.45,11111222 
TABS,ioos:station:wmo:42045:1,2008-05-03T09:30:00Z,26.2168,-96.4998,1008.48,11111222 
TABS,ioos:station:wmo:42045:1,2008-05-03T10:00:00Z,26.2168,-96.4998,1008.66,11111222 
TABS,ioos:station:wmo:42045:1,2008-05-03T10:30:00Z,26.2168,-96.4998,1008.85,11111222 
TABS,ioos:station:wmo:42045:1,2008-05-03T11:00:00Z,26.2168,-96.4998,1008.91,11111222 
TABS,ioos:station:wmo:42045:1,2008-05-03T11:30:00Z,26.2168,-96.4998,1009.19,11111222 
TABS,ioos:station:wmo:42045:1,2008-05-03T12:00:00Z,26.2168,-96.4998,1009.8,11111222 
TABS,ioos:station:wmo:42045:1,2008-05-03T12:30:00Z,26.2168,-96.4998,1010.2,11111222 
TABS,ioos:station:wmo:42045:1,2008-05-03T13:00:00Z,26.2168,-96.4998,1010.66,11111222 
TABS,ioos:station:wmo:42045:1,2008-05-03T13:30:00Z,26.2168,-96.4998,1011.03,11111222 
TABS,ioos:station:wmo:42045:1,2008-05-03T14:00:00Z,26.2168,-96.4998,1011.51,11111222 
TABS,ioos:station:wmo:42045:1,2008-05-03T14:30:00Z,26.2168,-96.4998,1011.94,11111222 
TABS,ioos:station:wmo:42045:1,2008-05-03T15:00:00Z,26.2168,-96.4998,1012.42,11111222 
TABS,ioos:station:wmo:42045:1,2008-05-03T15:30:00Z,26.2168,-96.4998,1012.53,11111222 
TABS,ioos:station:wmo:42045:1,2008-05-03T16:00:00Z,26.2168,-96.4998,1013.01,11111222 
TABS,ioos:station:wmo:42045:1,2008-05-03T16:30:00Z,26.2168,-96.4998,1013.15,11111222 
TABS,ioos:station:wmo:42045:1,2008-05-03T17:00:00Z,26.2168,-96.4998,1013.05,11111222 
TABS,ioos:station:wmo:42045:1,2008-05-03T17:30:00Z,26.2168,-96.4998,1012.97,11111222 
TABS,ioos:station:wmo:42045:1,2008-05-03T18:00:00Z,26.2168,-96.4998,1012.86,11111222 
TABS,ioos:station:wmo:42045:1,2008-05-03T18:30:00Z,26.2168,-96.4998,1012.9,11111222 
TABS,ioos:station:wmo:42045:1,2008-05-03T19:00:00Z,26.2168,-96.4998,1012.66,11111222 
TABS,ioos:station:wmo:42045:1,2008-05-03T19:30:00Z,26.2168,-96.4998,1012.55,11111222 
TABS,ioos:station:wmo:42045:1,2008-05-03T20:00:00Z,26.2168,-96.4998,1012.53,11111222 
TABS,ioos:station:wmo:42045:1,2008-05-03T20:30:00Z,26.2168,-96.4998,1012.35,11111222 
TABS,ioos:station:wmo:42045:1,2008-05-03T21:00:00Z,26.2168,-96.4998,1011.99,11111222 
TABS,ioos:station:wmo:42045:1,2008-05-03T21:30:00Z,26.2168,-96.4998,1011.99,11111222 
TABS,ioos:station:wmo:42045:1,2008-05-03T22:00:00Z,26.2168,-96.4998,1011.98,11111222 
TABS,ioos:station:wmo:42045:1,2008-05-03T22:30:00Z,26.2168,-96.4998,1011.98,11111222 
TABS,ioos:station:wmo:42045:1,2008-05-03T23:00:00Z,26.2168,-96.4998,1011.97,11111222 
TABS,ioos:station:wmo:42045:1,2008-05-03T23:30:00Z,26.2168,-96.4998,1011.87,11111222 
TABS,ioos:station:wmo:42045:1,2008-05-04T00:00:00Z,26.2168,-96.4998,1012.25,11111222 
TABS,ioos:station:wmo:42045:1,2008-05-04T00:30:00Z,26.2168,-96.4998,1012.53,11111222 
TABS,ioos:station:wmo:42045:1,2008-05-04T01:00:00Z,26.2168,-96.4998,1012.91,11111222 
TABS,ioos:station:wmo:42045:1,2008-05-04T01:30:00Z,26.2168,-96.4998,1013.25,11111222 
TABS,ioos:station:wmo:42045:1,2008-05-04T02:00:00Z,26.2168,-96.4998,1013.79,11111222 
TABS,ioos:station:wmo:42045:1,2008-05-04T02:30:00Z,26.2168,-96.4998,1014.01,11111222 
TABS,ioos:station:wmo:42045:1,2008-05-04T03:00:00Z,26.2168,-96.4998,1014.38,11111222 
TABS,ioos:station:wmo:42045:1,2008-05-04T03:30:00Z,26.2168,-96.4998,1014.45,11111222 
TABS,ioos:station:wmo:42045:1,2008-05-04T04:00:00Z,26.2168,-96.4998,1014.54,11111222 
TABS,ioos:station:wmo:42045:1,2008-05-04T04:30:00Z,26.2168,-96.4998,1014.28,11111222 
TABS,ioos:station:wmo:42045:1,2008-05-04T05:00:00Z,26.2168,-96.4998,1014.12,11111222 
TABS,ioos:station:wmo:42045:1,2008-05-04T05:30:00Z,26.2168,-96.4998,1013.99,11111222 
TABS,ioos:station:wmo:42045:1,2008-05-04T06:00:00Z,26.2168,-96.4998,1013.85,11111222 
TABS,ioos:station:wmo:42045:1,2008-05-04T06:30:00Z,26.2168,-96.4998,1013.92,11111222 
TABS,ioos:station:wmo:42045:1,2008-05-04T07:00:00Z,26.2168,-96.4998,1013.65,11111222 
TABS,ioos:station:wmo:42045:1,2008-05-04T07:30:00Z,26.2168,-96.4998,1013.33,11111222 
TABS,ioos:station:wmo:42045:1,2008-05-04T08:00:00Z,26.2168,-96.4998,1013.52,11111222 
TABS,ioos:station:wmo:42045:1,2008-05-04T08:30:00Z,26.2168,-96.4998,1013.28,11111222 
TABS,ioos:station:wmo:42045:1,2008-05-04T09:00:00Z,26.2168,-96.4998,1013.06,11111222 
TABS,ioos:station:wmo:42045:1,2008-05-04T09:30:00Z,26.2168,-96.4998,1012.88,11111222 
TABS,ioos:station:wmo:42045:1,2008-05-04T10:00:00Z,26.2168,-96.4998,1012.82,11111222 
TABS,ioos:station:wmo:42045:1,2008-05-04T10:30:00Z,26.2168,-96.4998,1013.26,11111222 
TABS,ioos:station:wmo:42045:1,2008-05-04T11:00:00Z,26.2168,-96.4998,1013.42,11111222 
TABS,ioos:station:wmo:42045:1,2008-05-04T11:30:00Z,26.2168,-96.4998,1013.86,11111222 
TABS,ioos:station:wmo:42045:1,2008-05-04T12:00:00Z,26.2168,-96.4998,1014.31,11111222 
TABS,ioos:station:wmo:42045:1,2008-05-04T12:30:00Z,26.2168,-96.4998,1014.68,11111222 
TABS,ioos:station:wmo:42045:1,2008-05-04T13:00:00Z,26.2168,-96.4998,1014.92,11111222 
TABS,ioos:station:wmo:42045:1,2008-05-04T13:30:00Z,26.2168,-96.4998,1015.06,11111222 
TABS,ioos:station:wmo:42045:1,2008-05-04T14:00:00Z,26.2168,-96.4998,1015.42,11111222 
TABS,ioos:station:wmo:42045:1,2008-05-04T14:30:00Z,26.2168,-96.4998,1015.71,11111222 
TABS,ioos:station:wmo:42045:1,2008-05-04T15:00:00Z,26.2168,-96.4998,1015.8,11111222 
TABS,ioos:station:wmo:42045:1,2008-05-04T15:30:00Z,26.2168,-96.4998,1016.0,11111222 
TABS,ioos:station:wmo:42045:1,2008-05-04T16:00:00Z,26.2168,-96.4998,1016.17,11111222 
TABS,ioos:station:wmo:42045:1,2008-05-04T16:30:00Z,26.2168,-96.4998,1016.15,11111222 
TABS,ioos:station:wmo:42045:1,2008-05-04T17:00:00Z,26.2168,-96.4998,1015.9,11111222 
TABS,ioos:station:wmo:42045:1,2008-05-04T17:30:00Z,26.2168,-96.4998,1015.77,11111222 
TABS,ioos:station:wmo:42045:1,2008-05-04T18:00:00Z,26.2168,-96.4998,1015.54,11111222 
TABS,ioos:station:wmo:42045:1,2008-05-04T18:30:00Z,26.2168,-96.4998,1015.18,11111222 
TABS,ioos:station:wmo:42045:1,2008-05-04T19:00:00Z,26.2168,-96.4998,1014.91,11111222 
TABS,ioos:station:wmo:42045:1,2008-05-04T19:30:00Z,26.2168,-96.4998,1014.4,11111222 
TABS,ioos:station:wmo:42045:1,2008-05-04T20:00:00Z,26.2168,-96.4998,1014.23,11111222 
TABS,ioos:station:wmo:42045:1,2008-05-04T20:30:00Z,26.2168,-96.4998,1013.57,11111222 
TABS,ioos:station:wmo:42045:1,2008-05-04T21:00:00Z,26.2168,-96.4998,1013.31,11111222 
TABS,ioos:station:wmo:42045:1,2008-05-04T21:30:00Z,26.2168,-96.4998,1013.22,11111222 
TABS,ioos:station:wmo:42045:1,2008-05-04T22:00:00Z,26.2168,-96.4998,1013.01,11111222 
TABS,ioos:station:wmo:42045:1,2008-05-04T22:30:00Z,26.2168,-96.4998,1012.96,11111222 
TABS,ioos:station:wmo:42045:1,2008-05-04T23:00:00Z,26.2168,-96.4998,1013.1,11111222 
TABS,ioos:station:wmo:42045:1,2008-05-04T23:30:00Z,26.2168,-96.4998,1013.23,11111222 
TABS,ioos:station:wmo:42045:1,2008-05-05T00:00:00Z,26.2168,-96.4998,1013.1,11111222 
TABS,ioos:station:wmo:42045:1,2008-05-05T00:30:00Z,26.2168,-96.4998,1013.31,11111222 
TABS,ioos:station:wmo:42045:1,2008-05-05T01:00:00Z,26.2168,-96.4998,1013.71,11111222 
TABS,ioos:station:wmo:42045:1,2008-05-05T01:30:00Z,26.2168,-96.4998,1013.98,11111222 
TABS,ioos:station:wmo:42045:1,2008-05-05T02:00:00Z,26.2168,-96.4998,1014.49,11111222 
TABS,ioos:station:wmo:42045:1,2008-05-05T02:30:00Z,26.2168,-96.4998,1014.54,11111222 
TABS,ioos:station:wmo:42045:1,2008-05-05T03:00:00Z,26.2168,-96.4998,1015.05,11111222 
TABS,ioos:station:wmo:42045:1,2008-05-05T03:30:00Z,26.2168,-96.4998,1015.08,11111222 
TABS,ioos:station:wmo:42045:1,2008-05-05T04:00:00Z,26.2168,-96.4998,1014.99,11111222 
TABS,ioos:station:wmo:42045:1,2008-05-05T04:30:00Z,26.2168,-96.4998,1015.16,11111222 
TABS,ioos:station:wmo:42045:1,2008-05-05T05:00:00Z,26.2168,-96.4998,1014.83,11111222 
TABS,ioos:station:wmo:42045:1,2008-05-05T05:30:00Z,26.2168,-96.4998,1014.69,11111222 
TABS,ioos:station:wmo:42045:1,2008-05-05T06:00:00Z,26.2168,-96.4998,1014.59,11111222 
TABS,ioos:station:wmo:42045:1,2008-05-05T06:30:00Z,26.2168,-96.4998,1014.33,11111222 
TABS,ioos:station:wmo:42045:1,2008-05-05T07:00:00Z,26.2168,-96.4998,1014.28,11111222 
TABS,ioos:station:wmo:42045:1,2008-05-05T07:30:00Z,26.2168,-96.4998,1013.95,11111222 
TABS,ioos:station:wmo:42045:1,2008-05-05T08:00:00Z,26.2168,-96.4998,1013.71,11111222 
TABS,ioos:station:wmo:42045:1,2008-05-05T08:30:00Z,26.2168,-96.4998,1013.74,11111222 
TABS,ioos:station:wmo:42045:1,2008-05-05T09:00:00Z,26.2168,-96.4998,1013.72,11111222 
TABS,ioos:station:wmo:42045:1,2008-05-05T09:30:00Z,26.2168,-96.4998,1013.76,11111222 
TABS,ioos:station:wmo:42045:1,2008-05-05T10:00:00Z,26.2168,-96.4998,1013.95,11111222 
TABS,ioos:station:wmo:42045:1,2008-05-05T10:30:00Z,26.2168,-96.4998,1013.99,11111222 
TABS,ioos:station:wmo:42045:1,2008-05-05T11:00:00Z,26.2168,-96.4998,1014.24,11111222 
TABS,ioos:station:wmo:42045:1,2008-05-05T11:30:00Z,26.2168,-96.4998,1014.73,11111222 
TABS,ioos:station:wmo:42045:1,2008-05-05T12:00:00Z,26.2168,-96.4998,1015.19,11111222 
TABS,ioos:station:wmo:42045:1,2008-05-05T12:30:00Z,26.2168,-96.4998,1015.78,11111222 
TABS,ioos:station:wmo:42045:1,2008-05-05T13:00:00Z,26.2168,-96.4998,1016.4,11111222 
TABS,ioos:station:wmo:42045:1,2008-05-05T13:30:00Z,26.2168,-96.4998,1016.31,11111222 
TABS,ioos:station:wmo:42045:1,2008-05-05T14:00:00Z,26.2168,-96.4998,1016.89,11111222 
TABS,ioos:station:wmo:42045:1,2008-05-05T14:30:00Z,26.2168,-96.4998,1017.3,11111222 
TABS,ioos:station:wmo:42045:1,2008-05-05T15:00:00Z,26.2168,-96.4998,1017.51,11111222 
TABS,ioos:station:wmo:42045:1,2008-05-05T15:30:00Z,26.2168,-96.4998,1017.67,11111222 
TABS,ioos:station:wmo:42045:1,2008-05-05T16:00:00Z,26.2168,-96.4998,1017.59,11111222 
TABS,ioos:station:wmo:42045:1,2008-05-05T16:30:00Z,26.2168,-96.4998,1017.27,11111222 
TABS,ioos:station:wmo:42045:1,2008-05-05T17:00:00Z,26.2168,-96.4998,1017.0,11111222 
TABS,ioos:station:wmo:42045:1,2008-05-05T17:30:00Z,26.2168,-96.4998,1016.45,11111222 
TABS,ioos:station:wmo:42045:1,2008-05-05T18:00:00Z,26.2168,-96.4998,1015.8,11111222 
TABS,ioos:station:wmo:42045:1,2008-05-05T18:30:00Z,26.2168,-96.4998,1014.89,11111222 
TABS,ioos:station:wmo:42045:1,2008-05-05T19:00:00Z,26.2168,-96.4998,1014.54,11111222 
TABS,ioos:station:wmo:42045:1,2008-05-05T19:30:00Z,26.2168,-96.4998,1013.92,11111222 
TABS,ioos:station:wmo:42045:1,2008-05-05T20:00:00Z,26.2168,-96.4998,1013.08,11111222 
TABS,ioos:station:wmo:42045:1,2008-05-05T20:30:00Z,26.2168,-96.4998,1013.29,11111222 
TABS,ioos:station:wmo:42045:1,2008-05-05T21:00:00Z,26.2168,-96.4998,1013.4,11111222 
TABS,ioos:station:wmo:42045:1,2008-05-05T21:30:00Z,26.2168,-96.4998,1013.51,11111222 
TABS,ioos:station:wmo:42045:1,2008-05-05T22:00:00Z,26.2168,-96.4998,1013.7,11111222 
TABS,ioos:station:wmo:42045:1,2008-05-05T22:30:00Z,26.2168,-96.4998,1013.72,11111222 
TABS,ioos:station:wmo:42045:1,2008-05-05T23:00:00Z,26.2168,-96.4998,1013.82,11111222 
TABS,ioos:station:wmo:42045:1,2008-05-05T23:30:00Z,26.2168,-96.4998,1013.69,11111222 
TABS,ioos:station:wmo:42045:1,2008-05-06T00:00:00Z,26.2168,-96.4998,1013.82,11111222 
TABS,ioos:station:wmo:42045:1,2008-05-06T00:30:00Z,26.2168,-96.4998,1013.77,11111222 
TABS,ioos:station:wmo:42045:1,2008-05-06T01:00:00Z,26.2168,-96.4998,1014.28,11111222 
TABS,ioos:station:wmo:42045:1,2008-05-06T01:30:00Z,26.2168,-96.4998,1014.74,11111222 
TABS,ioos:station:wmo:42045:1,2008-05-06T02:00:00Z,26.2168,-96.4998,1015.41,11111222 
TABS,ioos:station:wmo:42045:1,2008-05-06T02:30:00Z,26.2168,-96.4998,1015.88,11111222 
TABS,ioos:station:wmo:42045:1,2008-05-06T03:00:00Z,26.2168,-96.4998,1015.94,11111222 
TABS,ioos:station:wmo:42045:1,2008-05-06T03:30:00Z,26.2168,-96.4998,1016.01,11111222 
TABS,ioos:station:wmo:42045:1,2008-05-06T04:00:00Z,26.2168,-96.4998,1015.88,11111222 
TABS,ioos:station:wmo:42045:1,2008-05-06T04:30:00Z,26.2168,-96.4998,1015.43,11111222 
TABS,ioos:station:wmo:42045:1,2008-05-06T05:00:00Z,26.2168,-96.4998,1015.16,11111222 
TABS,ioos:station:wmo:42045:1,2008-05-06T05:30:00Z,26.2168,-96.4998,1014.8,11111222 
TABS,ioos:station:wmo:42045:1,2008-05-06T06:00:00Z,26.2168,-96.4998,1014.34,11111222 
TABS,ioos:station:wmo:42045:1,2008-05-06T06:30:00Z,26.2168,-96.4998,1013.67,11111222 
TABS,ioos:station:wmo:42045:1,2008-05-06T07:00:00Z,26.2168,-96.4998,1013.58,11111222 
TABS,ioos:station:wmo:42045:1,2008-05-06T07:30:00Z,26.2168,-96.4998,1013.66,11111222 
TABS,ioos:station:wmo:42045:1,2008-05-06T08:00:00Z,26.2168,-96.4998,1013.78,11111222 
TABS,ioos:station:wmo:42045:1,2008-05-06T08:30:00Z,26.2168,-96.4998,1013.73,11111222 
TABS,ioos:station:wmo:42045:1,2008-05-06T09:00:00Z,26.2168,-96.4998,1013.51,11111222 
TABS,ioos:station:wmo:42045:1,2008-05-06T09:30:00Z,26.2168,-96.4998,1013.41,11111222 
TABS,ioos:station:wmo:42045:1,2008-05-06T10:00:00Z,26.2168,-96.4998,1013.1,11111222 
TABS,ioos:station:wmo:42045:1,2008-05-06T10:30:00Z,26.2168,-96.4998,1012.85,11111222 
TABS,ioos:station:wmo:42045:1,2008-05-06T11:00:00Z,26.2168,-96.4998,1012.96,11111222 
TABS,ioos:station:wmo:42045:1,2008-05-06T11:30:00Z,26.2168,-96.4998,1013.78,11111222 
TABS,ioos:station:wmo:42045:1,2008-05-06T12:00:00Z,26.2168,-96.4998,1014.51,11111222 
TABS,ioos:station:wmo:42045:1,2008-05-06T12:30:00Z,26.2168,-96.4998,1014.55,11111222 
TABS,ioos:station:wmo:42045:1,2008-05-06T13:00:00Z,26.2168,-96.4998,1014.73,11111222 
TABS,ioos:station:wmo:42045:1,2008-05-06T13:30:00Z,26.2168,-96.4998,1015.17,11111222 
TABS,ioos:station:wmo:42045:1,2008-05-06T14:00:00Z,26.2168,-96.4998,1015.43,11111222 
TABS,ioos:station:wmo:42045:1,2008-05-06T14:30:00Z,26.2168,-96.4998,1015.64,11111222 
TABS,ioos:station:wmo:42045:1,2008-05-06T15:00:00Z,26.2168,-96.4998,1016.0,11111222 
TABS,ioos:station:wmo:42045:1,2008-05-06T15:30:00Z,26.2168,-96.4998,1016.18,11111222 
TABS,ioos:station:wmo:42045:1,2008-05-06T16:00:00Z,26.2168,-96.4998,1016.38,11111222 
TABS,ioos:station:wmo:42045:1,2008-05-06T16:30:00Z,26.2168,-96.4998,1016.63,11111222 
TABS,ioos:station:wmo:42045:1,2008-05-06T17:00:00Z,26.2168,-96.4998,1016.73,11111222 
TABS,ioos:station:wmo:42045:1,2008-05-06T17:30:00Z,26.2168,-96.4998,1016.3,11111222 
TABS,ioos:station:wmo:42045:1,2008-05-06T18:00:00Z,26.2168,-96.4998,1015.87,11111222 
TABS,ioos:station:wmo:42045:1,2008-05-06T18:30:00Z,26.2168,-96.4998,1015.45,11111222 